QPF
0.02 0.02 0.03 0.03 0.03 0.02 0.02 0.02 0.03 0.04 0.05 0.08 0.07 0.08 0.12 0.11 0.11 0.11 0.10 0.09 0.08 0.07 0.06 0.08 0.10 0.10 0.09 0.09 0.07 0.07 0.07 0.06 0.06 0.07 0.05 0.03 0.03 0.02 0.02 0.03 0.03 0.03 0.04
0.02 0.03 0.02 0.02 0.02 0.02 0.02 0.02 0.02 0.04 0.05 0.07 0.07 0.10 0.15 0.15 0.14 0.12 0.11 0.11 0.10 0.09 0.09 0.09 0.09 0.10 0.08 0.07 0.07 0.06 0.06 0.06 0.07 0.09 0.08 0.05 0.04 0.03 0.02 0.02 0.02 0.03 0.04
0.02 0.03 0.02 0.02 0.03 0.03 0.03 0.02 0.03 0.05 0.05 0.05 0.06 0.07 0.11 0.15 0.16 0.10 0.10 0.11 0.11 0.11 0.09 0.08 0.07 0.08 0.07 0.07 0.07 0.07 0.08 0.08 0.07 0.08 0.09 0.09 0.08 0.05 0.03 0.02 0.02 0.02 0.03
0.03 0.03 0.03 0.03 0.04 0.03 0.03 0.03 0.03 0.03 0.04 0.04 0.06 0.07 0.09 0.10 0.10 0.07 0.07 0.08 0.08 0.07 0.07 0.07 0.06 0.06 0.05 0.05 0.06 0.07 0.07 0.08 0.07 0.07 0.07 0.08 0.09 0.09 0.06 0.04 0.02 0.03 0.04
0.05 0.05 0.04 0.04 0.04 0.05 0.06 0.04 0.03 0.03 0.04 0.04 0.05 0.06 0.07 0.07 0.06 0.04 0.05 0.05 0.05 0.05 0.06 0.06 0.06 0.06 0.05 0.05 0.06 0.06 0.06 0.07 0.07 0.08 0.08 0.07 0.06 0.07 0.07 0.05 0.04 0.04 0.06
0.05 0.05 0.03 0.03 0.03 0.05 0.05 0.03 0.02 0.02 0.03 0.04 0.03 0.04 0.04 0.05 0.05 0.04 0.04 0.04 0.03 0.03 0.03 0.04 0.05 0.05 0.04 0.03 0.03 0.04 0.04 0.05 0.06 0.07 0.07 0.07 0.07 0.08 0.09 0.09 0.07 0.09 0.10
0.07 0.06 0.05 0.04 0.04 0.04 0.03 0.03 0.02 0.01 0.02 0.02 0.02 0.02 0.03 0.04 0.05 0.04 0.03 0.03 0.03 0.03 0.02 0.02 0.03 0.03 0.03 0.02 0.02 0.02 0.03 0.04 0.04 0.04 0.05 0.06 0.10 0.10 0.09 0.11 0.10 0.09 0.07
0.06 0.06 0.05 0.04 0.04 0.04 0.03 0.03 0.02 0.01 0.01 0.01 0.01 0.01 0.02 0.02 0.02 0.02 0.02 0.03 0.03 0.02 0.02 0.02 0.02 0.02 0.01 0.01 0.01 0.02 0.02 0.02 0.03 0.04 0.04 0.05 0.05 0.06 0.06 0.07 0.08 0.09 0.09
0.05 0.05 0.04 0.04 0.03 0.02 0.02 0.01 0.01 0.01 0.01 0.00 0.01 0.01 0.01 0.01 0.01 0.01 0.01 0.02 0.02 0.03 0.03 0.02 0.01 0.01 0.01 0.01 0.01 0.01 0.01 0.02 0.02 0.03 0.03 0.04 0.05 0.05 0.05 0.05 0.06 0.08 0.09
0.05 0.05 0.04 0.03 0.03 0.02 0.02 0.02 0.02 0.02 0.01 0.01 0.01 0.00 0.01 0.01 0.00 0.00 0.01 0.01 0.01 0.02 0.01 0.01 0.01 0.01 0.02 0.01 0.01 0.01 0.01 0.01 0.02 0.03 0.03 0.03 0.03 0.04 0.05 0.05 0.06 0.08 0.09
0.06 0.07 0.06 0.04 0.03 0.03 0.02 0.02 0.01 0.01 0.01 0.01 0.01 0.01 0.00 0.00 0.00 0.01 0.01 0.01 0.01 0.01 0.00 0.00 0.01 0.01 0.01 0.02 0.02 0.02 0.02 0.01 0.01 0.01 0.01 0.01 0.01 0.03 0.03 0.03 0.03 0.05 0.07
0.03 0.03 0.03 0.03 0.02 0.02 0.02 0.01 0.01 0.01 0.01 0.00 0.00 0.01 0.01 0.00 0.00 0.01 0.01 0.01 0.01 0.01 0.00 0.00 0.01 0.01 0.01 0.01 0.01 0.02 0.01 0.01 0.01 0.01 0.01 0.01 0.01 0.02 0.02 0.03 0.04 0.05 0.07
0.03 0.02 0.02 0.02 0.01 0.01 0.01 0.01 0.00 0.00 0.00 0.00 0.00 0.01 0.01 0.00 0.01 0.01 0.01 0.01 0.01 0.01 0.00 0.01 0.01 0.01 0.01 0.02 0.01 0.01 0.01 0.01 0.01 0.01 0.01 0.01 0.01 0.02 0.03 0.03 0.04 0.05 0.07
0.02 0.02 0.02 0.01 0.01 0.01 0.01 0.01 0.00 0.00 0.00 0.01 0.01 0.01 0.01 0.01 0.01 0.01 0.02 0.01 0.01 0.01 0.01 0.01 0.01 0.01 0.01 0.01 0.01 0.01 0.01 0.01 0.01 0.01 0.01 0.01 0.01 0.02 0.03 0.04 0.05 0.06 0.06
0.03 0.03 0.03 0.02 0.01 0.01 0.01 0.01 0.01 0.01 0.01 0.01 0.01 0.01 0.01 0.01 0.01 0.02 0.02 0.01 0.01 0.02 0.02 0.02 0.02 0.01 0.01 0.01 0.01 0.01 0.01 0.01 0.01 0.01 0.01 0.01 0.02 0.02 0.04 0.04 0.06 0.06 0.08
0.03 0.03 0.02 0.02 0.01 0.01 0.01 0.01 0.01 0.01 0.02 0.01 0.01 0.01 0.01 0.01 0.01 0.02 0.01 0.02 0.02 0.03 0.04 0.03 0.02 0.02 0.01 0.02 0.02 0.01 0.01 0.01 0.01 0.01 0.01 0.01 0.02 0.04 0.06 0.07 0.06 0.07 0.07
0.03 0.03 0.03 0.02 0.02 0.01 0.01 0.01 0.01 0.01 0.01 0.01 0.01 0.01 0.01 0.01 0.01 0.02 0.02 0.03 0.04 0.04 0.04 0.02 0.02 0.03 0.03 0.02 0.03 0.03 0.02 0.02 0.02 0.02 0.03 0.02 0.03 0.05 0.06 0.07 0.07 0.07 0.07
0.02 0.02 0.02 0.02 0.01 0.01 0.01 0.01 0.01 0.01 0.01 0.01 0.01 0.01 0.01 0.01 0.02 0.03 0.03 0.03 0.05 0.05 0.04 0.03 0.03 0.04 0.04 0.04 0.05 0.04 0.03 0.03 0.02 0.03 0.03 0.04 0.05 0.05 0.04 0.04 0.06 0.07 0.07
0.02 0.02 0.02 0.02 0.01 0.01 0.01 0.01 0.01 0.01 0.01 0.01 0.01 0.01 0.01 0.02 0.02 0.02 0.03 0.03 0.03 0.04 0.05 0.04 0.04 0.04 0.05 0.06 0.07 0.06 0.04 0.03 0.02 0.03 0.03 0.03 0.03 0.05 0.07 0.06 0.06 0.06 0.06
0.02 0.02 0.02 0.02 0.02 0.02 0.01 0.02 0.02 0.02 0.01 0.01 0.01 0.01 0.01 0.02 0.03 0.03 0.03 0.04 0.03 0.03 0.03 0.05 0.05 0.04 0.05 0.06 0.06 0.05 0.03 0.02 0.03 0.03 0.03 0.03 0.03 0.03 0.04 0.04 0.04 0.04 0.04
0.02 0.03 0.02 0.01 0.01 0.01 0.01 0.02 0.02 0.01 0.01 0.01 0.01 0.01 0.02 0.02 0.03 0.04 0.04 0.04 0.03 0.02 0.03 0.04 0.05 0.05 0.06 0.07 0.07 0.06 0.04 0.02 0.01 0.02 0.03 0.04 0.04 0.03 0.02 0.02 0.03 0.04 0.04
0.02 0.02 0.01 0.01 0.01 0.01 0.02 0.02 0.02 0.01 0.01 0.02 0.02 0.02 0.02 0.02 0.03 0.05 0.05 0.03 0.03 0.02 0.03 0.04 0.06 0.06 0.06 0.07 0.08 0.09 0.08 0.04 0.02 0.03 0.02 0.03 0.03 0.03 0.02 0.02 0.02 0.02 0.02
0.02 0.01 0.01 0.01 0.02 0.02 0.02 0.02 0.02 0.02 0.02 0.02 0.03 0.04 0.03 0.03 0.04 0.04 0.04 0.03 0.03 0.03 0.04 0.06 0.07 0.06 0.05 0.05 0.06 0.07 0.07 0.03 0.02 0.03 0.02 0.02 0.02 0.02 0.01 0.01 0.01 0.01 0.01
0.01 0.01 0.01 0.02 0.02 0.02 0.02 0.02 0.02 0.02 0.03 0.03 0.03 0.04 0.04 0.04 0.04 0.03 0.02 0.03 0.04 0.04 0.04 0.05 0.04 0.03 0.02 0.02 0.02 0.03 0.04 0.02 0.01 0.02 0.02 0.02 0.01 0.01 0.01 0.01 0.01 0.01 0.00
0.01 0.01 0.01 0.01 0.02 0.02 0.02 0.02 0.02 0.02 0.03 0.03 0.03 0.03 0.04 0.05 0.03 0.03 0.03 0.03 0.03 0.02 0.03 0.02 0.01 0.02 0.02 0.02 0.02 0.03 0.02 0.01 0.00 0.00 0.01 0.01 0.01 0.01 0.01 0.01 0.01 0.01 0.00
0.01 0.01 0.01 0.01 0.02 0.03 0.03 0.03 0.02 0.02 0.03 0.03 0.03 0.03 0.04 0.04 0.03 0.02 0.01 0.01 0.01 0.01 0.01 0.01 0.01 0.01 0.01 0.01 0.02 0.01 0.01 0.01 0.00 0.00 0.00 0.00 0.00 0.00 0.01 0.01 0.01 0.01 0.00
MSLP
1014.90 1015.43 1015.90 1016.28 1016.54 1016.69 1016.73 1016.70 1016.65 1016.61 1016.63 1016.72 1016.88 1017.09 1017.33 1017.57 1017.77 1017.91 1018.00 1018.03 1018.03 1018.04 1018.07 1018.18 1018.37 1018.66 1019.02 1019.43 1019.86 1020.26 1020.60 1020.84 1020.97 1021.01 1020.97 1020.89 1020.81 1020.77 1020.79 1020.91 1021.11 1021.39 1021.74
1014.46 1015.04 1015.58 1016.04 1016.38 1016.61 1016.72 1016.75 1016.73 1016.72 1016.74 1016.82 1016.95 1017.13 1017.34 1017.54 1017.70 1017.83 1017.90 1017.92 1017.92 1017.92 1017.95 1018.04 1018.21 1018.47 1018.79 1019.16 1019.55 1019.92 1020.23 1020.46 1020.60 1020.65 1020.63 1020.58 1020.53 1020.50 1020.55 1020.67 1020.88 1021.17 1021.52
1013.94 1014.57 1015.20 1015.75 1016.19 1016.50 1016.69 1016.78 1016.80 1016.81 1016.83 1016.89 1016.99 1017.13 1017.29 1017.44 1017.58 1017.68 1017.74 1017.77 1017.77 1017.78 1017.82 1017.90 1018.05 1018.27 1018.55 1018.86 1019.19 1019.51 1019.78 1019.99 1020.12 1020.19 1020.20 1020.18 1020.16 1020.18 1020.26 1020.41 1020.65 1020.96 1021.33
1013.42 1014.12 1014.82 1015.46 1015.99 1016.38 1016.64 1016.79 1016.85 1016.88 1016.90 1016.94 1017.01 1017.11 1017.23 1017.35 1017.46 1017.55 1017.60 1017.64 1017.66 1017.68 1017.73 1017.81 1017.95 1018.13 1018.35 1018.61 1018.87 1019.12 1019.34 1019.50 1019.62 1019.68 1019.71 1019.71 1019.73 1019.79 1019.90 1020.09 1020.36 1020.71 1021.12
1012.98 1013.74 1014.51 1015.22 1015.83 1016.29 1016.61 1016.80 1016.90 1016.95 1016.97 1017.00 1017.06 1017.13 1017.23 1017.33 1017.42 1017.49 1017.55 1017.60 1017.63 1017.68 1017.74 1017.82 1017.94 1018.09 1018.26 1018.45 1018.64 1018.81 1018.96 1019.06 1019.13 1019.17 1019.18 1019.19 1019.22 1019.29 1019.44 1019.66 1019.98 1020.38 1020.84
1012.69 1013.50 1014.33 1015.09 1015.75 1016.25 1016.61 1016.85 1016.98 1017.05 1017.09 1017.13 1017.19 1017.26 1017.34 1017.43 1017.51 1017.58 1017.64 1017.69 1017.74 1017.79 1017.86 1017.94 1018.04 1018.16 1018.28 1018.41 1018.52 1018.61 1018.67 1018.70 1018.69 1018.66 1018.62 1018.59 1018.60 1018.67 1018.83 1019.08 1019.44 1019.91 1020.46
1012.58 1013.44 1014.30 1015.09 1015.77 1016.30 1016.69 1016.95 1017.12 1017.22 1017.30 1017.37 1017.44 1017.53 1017.62 1017.70 1017.78 1017.84 1017.89 1017.93 1017.97 1018.02 1018.08 1018.15 1018.24 1018.32 1018.41 1018.47 1018.52 1018.52 1018.48 1018.41 1018.30 1018.17 1018.04 1017.94 1017.89 1017.92 1018.07 1018.35 1018.76 1019.30 1019.95
1012.64 1013.53 1014.41 1015.22 1015.91 1016.46 1016.87 1017.16 1017.35 1017.50 1017.62 1017.73 1017.84 1017.95 1018.05 1018.13 1018.20 1018.24 1018.26 1018.28 1018.30 1018.33 1018.37 1018.42 1018.49 1018.55 1018.59 1018.61 1018.58 1018.51 1018.37 1018.19 1017.96 1017.71 1017.47 1017.26 1017.13 1017.10 1017.23 1017.51 1017.97 1018.59 1019.36
1012.83 1013.75 1014.65 1015.46 1016.16 1016.71 1017.14 1017.45 1017.69 1017.87 1018.04 1018.20 1018.35 1018.48 1018.59 1018.67 1018.72 1018.72 1018.71 1018.68 1018.66 1018.65 1018.66 1018.69 1018.74 1018.78 1018.80 1018.78 1018.70 1018.55 1018.33 1018.04 1017.69 1017.32 1016.95 1016.64 1016.41 1016.32 1016.41 1016.70 1017.19 1017.90 1018.78
1013.11 1014.05 1014.96 1015.78 1016.48 1017.04 1017.48 1017.82 1018.09 1018.32 1018.54 1018.73 1018.92 1019.07 1019.18 1019.24 1019.25 1019.22 1019.15 1019.07 1018.99 1018.94 1018.92 1018.93 1018.96 1018.99 1019.00 1018.95 1018.84 1018.64 1018.35 1017.98 1017.53 1017.06 1016.59 1016.17 1015.86 1015.72 1015.77 1016.06 1016.59 1017.36 1018.33
1013.43 1014.39 1015.30 1016.13 1016.83 1017.40 1017.85 1018.22 1018.52 1018.79 1019.03 1019.26 1019.45 1019.61 1019.71 1019.74 1019.71 1019.63 1019.50 1019.37 1019.25 1019.16 1019.11 1019.11 1019.14 1019.17 1019.17 1019.13 1019.01 1018.79 1018.46 1018.04 1017.54 1017.00 1016.46 1015.98 1015.63 1015.44 1015.48 1015.77 1016.33 1017.13 1018.16
1013.76 1014.72 1015.64 1016.46 1017.16 1017.74 1018.20 1018.59 1018.91 1019.19 1019.45 1019.68 1019.88 1020.02 1020.10 1020.10 1020.03 1019.90 1019.74 1019.57 1019.42 1019.31 1019.26 1019.25 1019.28 1019.33 1019.35 1019.32 1019.21 1018.99 1018.67 1018.24 1017.73 1017.17 1016.63 1016.14 1015.78 1015.59 1015.63 1015.93 1016.49 1017.31 1018.34
1014.10 1015.05 1015.95 1016.76 1017.46 1018.03 1018.50 1018.88 1019.20 1019.48 1019.73 1019.95 1020.12 1020.24 1020.29 1020.27 1020.18 1020.03 1019.86 1019.68 1019.53 1019.42 1019.38 1019.39 1019.44 1019.50 1019.55 1019.54 1019.45 1019.27 1018.97 1018.58 1018.10 1017.59 1017.09 1016.65 1016.32 1016.17 1016.23 1016.54 1017.10 1017.88 1018.87
1014.48 1015.40 1016.26 1017.04 1017.71 1018.26 1018.71 1019.07 1019.37 1019.63 1019.85 1020.03 1020.18 1020.27 1020.30 1020.26 1020.17 1020.04 1019.88 1019.74 1019.62 1019.54 1019.53 1019.56 1019.63 1019.72 1019.78 1019.80 1019.74 1019.60 1019.35 1019.02 1018.63 1018.20 1017.79 1017.44 1017.20 1017.11 1017.22 1017.53 1018.06 1018.79 1019.68
1014.94 1015.78 1016.58 1017.31 1017.93 1018.44 1018.85 1019.17 1019.43 1019.64 1019.82 1019.96 1020.07 1020.13 1020.16 1020.14 1020.07 1019.99 1019.89 1019.80 1019.74 1019.72 1019.74 1019.81 1019.90 1019.99 1020.06 1020.09 1020.06 1019.95 1019.77 1019.52 1019.23 1018.92 1018.63 1018.40 1018.27 1018.27 1018.42 1018.74 1019.23 1019.87 1020.64
1015.49 1016.24 1016.95 1017.60 1018.15 1018.60 1018.95 1019.21 1019.41 1019.56 1019.68 1019.78 1019.86 1019.91 1019.95 1019.96 1019.96 1019.95 1019.93 1019.93 1019.95 1019.99 1020.06 1020.15 1020.24 1020.33 1020.39 1020.41 1020.38 1020.30 1020.17 1020.01 1019.82 1019.64 1019.49 1019.40 1019.38 1019.47 1019.67 1019.99 1020.43 1020.97 1021.58
1016.15 1016.77 1017.38 1017.93 1018.39 1018.76 1019.03 1019.23 1019.36 1019.46 1019.53 1019.58 1019.64 1019.70 1019.77 1019.84 1019.91 1019.99 1020.08 1020.17 1020.27 1020.37 1020.48 1020.58 1020.66 1020.72 1020.74 1020.74 1020.70 1020.63 1020.54 1020.45 1020.36 1020.30 1020.28 1020.31 1020.41 1020.57 1020.81 1021.12 1021.49 1021.92 1022.38
1016.87 1017.38 1017.87 1018.30 1018.67 1018.95 1019.15 1019.27 1019.35 1019.39 1019.42 1019.45 1019.51 1019.59 1019.70 1019.83 1019.99 1020.17 1020.35 1020.53 1020.71 1020.86 1020.98 1021.08 1021.13 1021.14 1021.12 1021.07 1021.01 1020.93 1020.87 1020.83 1020.83 1020.87 1020.95 1021.08 1021.26 1021.48 1021.73 1022.02 1022.32 1022.64 1022.97
1017.61 1018.00 1018.37 1018.70 1018.97 1019.17 1019.30 1019.37 1019.40 1019.40 1019.41 1019.44 1019.51 1019.62 1019.78 1019.98 1020.22 1020.48 1020.75 1021.00 1021.23 1021.41 1021.54 1021.62 1021.63 1021.60 1021.53 1021.43 1021.33 1021.25 1021.21 1021.20 1021.26 1021.36 1021.52 1021.72 1021.94 1022.19 1022.43 1022.68 1022.91 1023.13 1023.34
1018.30 1018.58 1018.85 1019.09 1019.29 1019.42 1019.50 1019.53 1019.53 1019.52 1019.53 1019.57 1019.66 1019.81 1020.02 1020.29 1020.59 1020.91 1021.24 1021.54 1021.80 1021.99 1022.12 1022.17 1022.15 1022.08 1021.97 1021.84 1021.72 1021.64 1021.60 1021.62 1021.71 1021.86 1022.05 1022.27 1022.51 1022.75 1022.97 1023.16 1023.32 1023.46 1023.57
1018.87 1019.07 1019.26 1019.43 1019.57 1019.66 1019.71 1019.73 1019.73 1019.74 1019.77 1019.84 1019.96 1020.15 1020.40 1020.71 1021.05 1021.42 1021.77 1022.10 1022.37 1022.57 1022.69 1022.72 1022.68 1022.59 1022.46 1022.32 1022.20 1022.12 1022.10 1022.14 1022.24 1022.40 1022.60 1022.82 1023.04 1023.24 1023.41 1023.54 1023.63 1023.70 1023.74
1019.28 1019.42 1019.56 1019.69 1019.80 1019.87 1019.92 1019.96 1019.99 1020.03 1020.10 1020.21 1020.37 1020.60 1020.88 1021.21 1021.58 1021.95 1022.32 1022.64 1022.91 1023.11 1023.22 1023.26 1023.22 1023.13 1023.01 1022.89 1022.79 1022.72 1022.71 1022.76 1022.87 1023.02 1023.20 1023.38 1023.56 1023.70 1023.81 1023.89 1023.92 1023.93 1023.92
1019.53 1019.64 1019.76 1019.87 1019.96 1020.05 1020.13 1020.20 1020.28 1020.37 1020.49 1020.65 1020.85 1021.11 1021.41 1021.75 1022.11 1022.48 1022.83 1023.15 1023.41 1023.60 1023.72 1023.77 1023.75 1023.69 1023.61 1023.52 1023.45 1023.41 1023.42 1023.47 1023.56 1023.68 1023.82 1023.95 1024.06 1024.15 1024.20 1024.22 1024.21 1024.18 1024.15
1019.66 1019.76 1019.87 1019.98 1020.09 1020.21 1020.33 1020.45 1020.59 1020.74 1020.92 1021.13 1021.37 1021.65 1021.96 1022.30 1022.65 1022.99 1023.33 1023.62 1023.87 1024.06 1024.19 1024.26 1024.27 1024.25 1024.21 1024.16 1024.12 1024.11 1024.12 1024.16 1024.22 1024.30 1024.38 1024.45 1024.51 1024.54 1024.54 1024.51 1024.48 1024.44 1024.40
1019.73 1019.83 1019.94 1020.06 1020.21 1020.36 1020.54 1020.72 1020.93 1021.15 1021.38 1021.64 1021.91 1022.21 1022.52 1022.84 1023.17 1023.49 1023.79 1024.06 1024.30 1024.48 1024.62 1024.71 1024.76 1024.77 1024.76 1024.75 1024.73 1024.71 1024.71 1024.72 1024.74 1024.77 1024.78 1024.80 1024.79 1024.78 1024.75 1024.71 1024.67 1024.64 1024.62
1019.80 1019.91 1020.03 1020.18 1020.36 1020.56 1020.79 1021.03 1021.30 1021.58 1021.86 1022.16 1022.46 1022.77 1023.08 1023.38 1023.68 1023.97 1024.24 1024.49 1024.70 1024.88 1025.02 1025.11 1025.18 1025.21 1025.21 1025.20 1025.17 1025.14 1025.10 1025.06 1025.02 1024.98 1024.94 1024.90 1024.86 1024.82 1024.79 1024.76 1024.74 1024.74 1024.75
Thickness
5710 5709 5707 5705 5702 5701 5699 5697 5695 5693 5692 5692 5691 5690 5688 5689 5689 5689 5687 5687 5689 5690 5691 5693 5692 5692 5693 5693 5693 5693 5692 5692 5692 5691 5692 5695 5695 5695 5694 5694 5694 5694 5693
5703 5700 5699 5698 5695 5694 5692 5690 5688 5687 5686 5685 5685 5683 5683 5683 5682 5681 5679 5680 5681 5683 5685 5685 5687 5687 5687 5688 5688 5687 5687 5688 5688 5686 5685 5686 5688 5689 5690 5689 5688 5688 5688
5700 5694 5692 5691 5690 5687 5685 5683 5680 5680 5679 5679 5680 5678 5677 5677 5676 5675 5675 5674 5675 5677 5678 5679 5681 5681 5683 5684 5683 5683 5681 5681 5682 5683 5681 5680 5681 5684 5684 5683 5682 5681 5681
5695 5691 5687 5684 5682 5680 5678 5676 5673 5672 5672 5672 5673 5672 5671 5669 5667 5668 5668 5668 5669 5670 5671 5673 5675 5676 5678 5678 5678 5679 5677 5677 5677 5678 5679 5679 5679 5675 5676 5676 5676 5675 5673
5691 5686 5682 5677 5674 5672 5671 5670 5667 5665 5665 5665 5665 5665 5664 5663 5663 5662 5662 5662 5663 5664 5664 5666 5668 5670 5672 5672 5672 5672 5672 5673 5673 5673 5673 5673 5673 5672 5670 5669 5668 5667 5666
5685 5680 5676 5672 5668 5666 5665 5662 5660 5658 5658 5657 5657 5656 5656 5656 5656 5656 5656 5657 5659 5659 5658 5660 5661 5663 5665 5665 5665 5665 5666 5667 5667 5668 5668 5667 5667 5667 5666 5663 5661 5659 5657
5680 5674 5669 5666 5662 5659 5657 5655 5653 5651 5650 5650 5649 5649 5649 5650 5650 5650 5649 5650 5651 5652 5651 5652 5654 5656 5656 5657 5658 5659 5660 5661 5661 5661 5662 5662 5662 5662 5661 5658 5656 5653 5649
5675 5669 5665 5661 5656 5652 5650 5648 5646 5644 5643 5642 5641 5641 5642 5644 5643 5642 5643 5643 5644 5644 5643 5644 5646 5647 5649 5650 5651 5653 5653 5654 5654 5655 5655 5655 5656 5655 5654 5653 5651 5646 5642
5669 5663 5658 5653 5649 5646 5643 5640 5638 5636 5635 5635 5634 5633 5633 5633 5633 5633 5634 5635 5634 5635 5635 5636 5638 5639 5641 5642 5643 5644 5644 5646 5647 5648 5648 5648 5649 5649 5649 5649 5648 5644 5639
5662 5655 5650 5645 5642 5639 5635 5632 5630 5629 5628 5627 5627 5626 5625 5625 5625 5625 5624 5624 5625 5625 5627 5628 5630 5631 5632 5634 5635 5636 5636 5637 5638 5639 5639 5640 5642 5642 5643 5643 5642 5641 5637
5654 5648 5642 5637 5634 5630 5627 5624 5622 5621 5620 5619 5618 5617 5617 5616 5616 5616 5615 5615 5616 5617 5618 5620 5621 5623 5624 5625 5625 5627 5628 5628 5629 5631 5632 5632 5633 5635 5636 5636 5635 5633 5631
5647 5641 5635 5629 5625 5622 5619 5616 5614 5613 5611 5610 5609 5608 5608 5607 5607 5607 5606 5606 5607 5608 5609 5610 5612 5613 5615 5615 5617 5618 5619 5619 5621 5622 5623 5624 5625 5626 5628 5628 5627 5626 5624
5639 5632 5625 5621 5617 5614 5611 5609 5607 5604 5602 5601 5600 5599 5599 5598 5598 5597 5597 5597 5598 5599 5600 5601 5602 5604 5605 5606 5607 5608 5609 5610 5612 5613 5614 5615 5616 5618 5619 5619 5618 5617 5615
5629 5623 5617 5613 5609 5605 5603 5601 5598 5596 5594 5593 5592 5590 5589 5589 5588 5588 5588 5588 5589 5590 5590 5591 5592 5594 5595 5597 5598 5599 5600 5601 5602 5603 5604 5606 5607 5609 5610 5610 5608 5607 5604
5621 5615 5609 5604 5600 5596 5593 5591 5589 5587 5585 5584 5583 5582 5581 5580 5579 5579 5578 5578 5579 5580 5580 5581 5583 5584 5586 5586 5587 5590 5591 5592 5593 5594 5595 5596 5597 5599 5600 5601 5600 5598 5596
5614 5607 5600 5596 5591 5588 5584 5582 5579 5578 5577 5576 5575 5573 5572 5571 5570 5569 5569 5569 5570 5571 5572 5573 5574 5574 5574 5573 5575 5579 5582 5584 5586 5586 5587 5587 5588 5588 5589 5589 5589 5589 5588
5607 5599 5593 5588 5583 5579 5575 5572 5570 5569 5568 5567 5566 5564 5563 5562 5561 5562 5561 5561 5561 5562 5563 5564 5564 5564 5563 5563 5566 5569 5574 5576 5577 5578 5580 5581 5580 5582 5581 5579 5578 5578 5577
5599 5592 5585 5579 5573 5569 5566 5563 5562 5560 5559 5558 5556 5555 5553 5553 5552 5552 5552 5552 5553 5553 5553 5554 5554 5555 5554 5555 5558 5562 5566 5567 5568 5569 5571 5573 5573 5574 5575 5574 5572 5571 5569
5591 5583 5576 5570 5565 5561 5558 5556 5554 5552 5551 5549 5548 5546 5545 5545 5544 5544 5544 5544 5544 5545 5545 5545 5546 5547 5546 5547 5552 5556 5559 5560 5560 5561 5562 5565 5565 5563 5566 5568 5567 5564 5561
5581 5574 5568 5563 5558 5554 5551 5549 5547 5545 5543 5541 5540 5539 5538 5537 5537 5537 5537 5537 5537 5538 5538 5537 5538 5539 5540 5540 5545 5550 5555 5555 5555 5554 5554 5554 5556 5556 5558 5562 5561 5560 5558
5572 5567 5561 5556 5552 5548 5546 5543 5540 5538 5536 5534 5534 5532 5531 5531 5530 5529 5529 5530 5531 5531 5531 5531 5532 5533 5533 5535 5538 5543 5549 5551 5551 5551 5550 5547 5547 5550 5552 5555 5556 5554 5555
5566 5561 5555 5550 5546 5543 5540 5537 5533 5531 5530 5529 5528 5527 5526 5526 5525 5524 5524 5525 5526 5527 5527 5527 5528 5529 5529 5530 5532 5536 5539 5543 5546 5547 5546 5542 5542 5544 5547 5548 5547 5549 5552
5560 5555 5550 5545 5540 5537 5534 5531 5527 5526 5525 5524 5523 5521 5521 5521 5521 5521 5521 5522 5523 5526 5526 5527 5527 5527 5528 5526 5528 5531 5533 5537 5540 5539 5537 5538 5539 5541 5543 5543 5545 5548 5553
5555 5550 5546 5540 5535 5532 5530 5527 5523 5521 5521 5520 5519 5518 5517 5518 5517 5518 5521 5522 5522 5523 5524 5525 5525 5525 5527 5528 5529 5531 5532 5532 5535 5537 5535 5536 5539 5541 5541 5543 5546 5549 5551
5551 5546 5542 5537 5532 5529 5525 5523 5521 5519 5518 5517 5516 5516 5516 5515 5515 5515 5514 5517 5516 5517 5520 5523 5524 5525 5526 5521 5521 5528 5533 5535 5536 5537 5540 5543 5544 5545 5546 5547 5548 5549 5550
5548 5543 5539 5535 5531 5527 5524 5522 5519 5518 5517 5515 5515 5515 5515 5515 5516 5516 5514 5509 5511 5511 5513 5514 5517 5519 5518 5518 5520 5522 5525 5528 5531 5537 5543 5544 5546 5547 5548 5549 5549 5550 5551